Location: Overspoor
(51.4747°N, 5.6641°E)
Time: 20:36:47
(UTC+02:00)

RS-15 - Pass Details

Date: 28 June 2022
Orbit: 1881 x 2163 km, 64.8° (Epoch: 15 August)

Event Time Altitude Azimuth Distance (km) Brightness Sun altitude
Rises 03:30:23 0° 321° (NW) 5,701 10.8 -11.4°
Reaches altitude 10° 03:34:25 10° 312° (NW) 4,689 10.2 -11.2°
Maximum altitude 03:44:22 31° 257° (WSW) 3,249 8.9 -10.5°
Enters shadow 03:53:53 11° 202° (SSW) 4,508 9.3 -9.7°
